Location: Schommer Observatory
(40.5200°N, 74.4500°W)
Time: 12:04:54
(UTC-04:00)

Tiangong 1 - Visible Passes

Search period start: 28 April 2017 00:00
Search period end: 08 May 2017 00:00
Orbit: 329 x 352 km, 42.8° (Epoch: 26 April)

Date Brightness Start Highest point End Pass type
(mag) Time Alt. Az. Time Alt. Az. Time Alt. Az.
28 Apr 3.7 03:44:33 12° ESE 03:44:33 12° ESE 03:44:52 10° ESE visible
28 Apr 2.4 05:15:54 13° WSW 05:17:32 19° SSW 05:19:39 10° SSE visible
29 Apr 3.6 04:06:21 11° SE 04:06:21 11° SE 04:06:32 10° SE visible
01 May 3.2 21:08:31 10° S 21:08:52 12° S 21:08:52 12° S visible
02 May 2.0 21:29:09 10° SW 21:30:52 28° SSW 21:30:52 28° SSW visible
03 May 1.8 21:50:24 10° WSW 21:52:22 40° WSW 21:52:22 40° WSW visible
04 May 1.2 20:36:17 10° SW 20:39:00 42° SSE 20:41:43 10° E visible
04 May 2.8 22:11:53 10° W 22:13:26 28° WNW 22:13:26 28° WNW visible
05 May 0.7 20:57:26 10° WSW 21:00:16 89° NNW 21:02:52 12° ENE visible
05 May 3.6 22:33:21 10° WNW 22:34:10 17° WNW 22:34:10 17° WNW visible
06 May 1.3 21:18:45 10° W 21:21:34 56° N 21:23:19 20° ENE visible
07 May 1.5 21:40:03 10° WNW 21:42:51 50° N 21:43:34 37° NE visible
